Time,TemperatureF,DewpointF,PressureIn,WindDirection,WindDirectionDegrees,WindSpeedMPH,WindSpeedGustMPH,Humidity,HourlyPrecipIn,Conditions,Clouds,dailyrainin,SoftwareType,DateUTC
2013-05-22 00:01:00,49.5,40.5,29.74,North,0,0.0,0.0,71,0.00,,OVC036,0.00,VWS V12.08,2013-05-22 07:01:00,
2013-05-22 00:06:00,49.5,40.5,29.74,North,0,0.0,0.0,71,0.00,,OVC036,0.00,VWS V12.08,2013-05-22 07:06:00,
2013-05-22 00:11:00,49.5,40.5,29.74,North,0,0.0,0.0,71,0.00,,OVC036,0.00,VWS V12.08,2013-05-22 07:11:00,
2013-05-22 00:16:00,49.5,40.5,29.74,North,0,0.0,0.0,71,0.00,,OVC036,0.00,VWS V12.08,2013-05-22 07:16:00,
2013-05-22 00:21:00,49.5,40.5,29.74,North,0,0.0,0.0,71,0.00,,OVC036,0.00,VWS V12.08,2013-05-22 07:21:00,
2013-05-22 00:26:00,49.5,40.5,29.74,North,0,0.0,0.0,71,0.00,,OVC036,0.00,VWS V12.08,2013-05-22 07:26:00,
2013-05-22 00:31:00,49.6,40.6,29.74,North,0,0.0,0.0,71,0.00,,OVC036,0.00,VWS V12.08,2013-05-22 07:31:00,
2013-05-22 00:36:00,49.6,40.6,29.74,North,0,0.0,0.0,71,0.00,,OVC036,0.00,VWS V12.08,2013-05-22 07:36:00,
2013-05-22 00:41:00,49.6,41.0,29.74,North,0,0.0,0.0,72,0.00,,OVC036,0.00,VWS V12.08,2013-05-22 07:41:00,
2013-05-22 00:46:00,49.5,40.8,29.74,North,0,0.0,0.0,72,0.00,,OVC036,0.00,VWS V12.08,2013-05-22 07:46:00,
2013-05-22 00:51:00,49.5,40.8,29.74,North,0,0.0,0.0,72,0.00,,OVC036,0.00,VWS V12.08,2013-05-22 07:51:00,
2013-05-22 00:56:00,49.5,40.8,29.74,North,0,0.0,0.0,72,0.00,,OVC036,0.00,VWS V12.08,2013-05-22 07:56:00,
2013-05-22 01:01:00,49.5,40.8,29.74,North,0,0.0,0.0,72,0.00,,OVC036,0.00,VWS V12.08,2013-05-22 08:01:00,
2013-05-22 01:06:00,49.3,40.7,29.74,North,0,0.0,0.0,72,0.00,,OVC036,0.00,VWS V12.08,2013-05-22 08:06:00,
2013-05-22 01:11:00,49.3,41.0,29.74,North,0,0.0,0.0,73,0.00,,OVC036,0.00,VWS V12.08,2013-05-22 08:11:00,
2013-05-22 01:16:00,49.3,41.0,29.74,North,0,0.0,0.0,73,0.00,,OVC036,0.00,VWS V12.08,2013-05-22 08:16:00,
2013-05-22 01:21:00,49.3,41.0,29.74,North,0,0.0,0.0,73,0.00,,OVC036,0.00,VWS V12.08,2013-05-22 08:21:00,
2013-05-22 01:26:00,49.3,41.0,29.74,North,0,0.0,0.0,73,0.00,,OVC036,0.00,VWS V12.08,2013-05-22 08:26:00,
2013-05-22 01:31:00,49.3,41.0,29.74,North,0,0.0,0.0,73,0.00,,OVC036,0.00,VWS V12.08,2013-05-22 08:31:00,
2013-05-22 01:36:00,49.1,40.8,29.74,North,0,0.0,0.0,73,0.00,,OVC036,0.00,VWS V12.08,2013-05-22 08:36:00,
2013-05-22 01:41:00,49.1,40.8,29.74,North,0,0.0,0.0,73,0.00,,OVC036,0.00,VWS V12.08,2013-05-22 08:41:00,
2013-05-22 01:46:00,49.1,41.2,29.74,North,0,0.0,0.0,74,0.00,,OVC036,0.00,VWS V12.08,2013-05-22 08:46:00,
2013-05-22 01:51:00,49.1,41.2,29.74,North,0,0.0,0.0,74,0.00,,OVC036,0.00,VWS V12.08,2013-05-22 08:51:00,
2013-05-22 01:56:00,49.1,41.2,29.74,North,0,0.0,0.0,74,0.00,,OVC036,0.00,VWS V12.08,2013-05-22 08:56:00,
2013-05-22 02:01:00,49.1,41.2,29.74,North,0,0.0,0.0,74,0.00,,OVC036,0.00,VWS V12.08,2013-05-22 09:01:00,
2013-05-22 02:06:00,49.1,41.2,29.74,North,0,0.0,0.0,74,0.00,,OVC036,0.00,VWS V12.08,2013-05-22 09:06:00,
2013-05-22 02:11:00,49.1,40.8,29.74,North,0,0.0,0.0,73,0.00,,OVC036,0.00,VWS V12.08,2013-05-22 09:11:00,
2013-05-22 02:16:00,49.1,41.2,29.74,North,0,0.0,0.0,74,0.00,,OVC036,0.00,VWS V12.08,2013-05-22 09:16:00,
2013-05-22 02:21:00,49.1,41.2,29.74,North,0,0.0,0.0,74,0.00,,OVC036,0.00,VWS V12.08,2013-05-22 09:21:00,
2013-05-22 02:26:00,49.1,41.2,29.74,North,0,0.0,0.0,74,0.00,,OVC036,0.00,VWS V12.08,2013-05-22 09:26:00,
2013-05-22 02:31:00,49.1,41.2,29.74,North,0,0.0,0.0,74,0.00,,OVC036,0.00,VWS V12.08,2013-05-22 09:31:00,
2013-05-22 02:36:00,49.1,41.2,29.74,North,0,0.0,0.0,74,0.00,,OVC036,0.00,VWS V12.08,2013-05-22 09:36:00,
2013-05-22 02:41:00,49.1,41.2,29.74,North,0,0.0,0.0,74,0.00,,OVC036,0.00,VWS V12.08,2013-05-22 09:41:00,
2013-05-22 02:46:00,49.1,41.2,29.74,North,0,0.0,0.0,74,0.00,,OVC036,0.00,VWS V12.08,2013-05-22 09:46:00,
2013-05-22 02:51:00,48.9,41.0,29.74,North,0,0.0,0.0,74,0.00,,OVC036,0.00,VWS V12.08,2013-05-22 09:51:00,
2013-05-22 02:56:00,48.7,40.8,29.77,North,0,0.0,0.0,74,0.00,,OVC036,0.00,VWS V12.08,2013-05-22 09:56:00,
2013-05-22 03:01:00,48.7,40.8,29.77,North,0,0.0,0.0,74,0.00,,OVC036,0.00,VWS V12.08,2013-05-22 10:01:00,
2013-05-22 03:06:00,48.7,40.8,29.77,North,0,0.0,0.0,74,0.00,,OVC036,0.00,VWS V12.08,2013-05-22 10:06:00,
2013-05-22 03:11:00,48.7,40.8,29.77,North,0,0.0,0.0,74,0.00,,OVC036,0.00,VWS V12.08,2013-05-22 10:11:00,
2013-05-22 03:16:00,48.7,40.8,29.77,North,0,0.0,0.0,74,0.00,,OVC036,0.00,VWS V12.08,2013-05-22 10:16:00,
2013-05-22 03:21:00,48.6,40.7,29.77,North,0,0.0,0.0,74,0.00,,OVC036,0.00,VWS V12.08,2013-05-22 10:21:00,
2013-05-22 03:26:00,48.7,41.2,29.77,North,0,0.0,0.0,75,0.00,,OVC036,0.00,VWS V12.08,2013-05-22 10:26:00,
2013-05-22 03:31:00,48.7,41.2,29.77,North,0,0.0,0.0,75,0.00,,OVC036,0.00,VWS V12.08,2013-05-22 10:31:00,
2013-05-22 03:36:00,48.7,41.2,29.77,North,0,0.0,0.0,75,0.00,,OVC036,0.00,VWS V12.08,2013-05-22 10:36:00,
2013-05-22 03:41:00,48.7,41.2,29.77,North,0,0.0,0.0,75,0.00,,OVC036,0.00,VWS V12.08,2013-05-22 10:41:00,
2013-05-22 03:46:00,48.6,41.0,29.77,North,0,0.0,0.0,75,0.00,,OVC036,0.00,VWS V12.08,2013-05-22 10:46:00,
2013-05-22 03:51:00,48.6,41.0,29.77,North,0,0.0,0.0,75,0.00,,OVC036,0.00,VWS V12.08,2013-05-22 10:51:00,
2013-05-22 03:56:00,48.6,41.0,29.77,North,0,0.0,0.0,75,0.00,,OVC036,0.00,VWS V12.08,2013-05-22 10:56:00,
2013-05-22 04:01:00,48.6,41.0,29.77,North,0,0.0,0.0,75,0.00,,OVC036,0.00,VWS V12.08,2013-05-22 11:01:00,
2013-05-22 04:06:00,48.6,41.0,29.77,North,0,0.0,0.0,75,0.00,,OVC036,0.00,VWS V12.08,2013-05-22 11:06:00,
2013-05-22 04:11:00,48.6,41.0,29.77,North,0,0.0,0.0,75,0.00,,OVC036,0.00,VWS V12.08,2013-05-22 11:11:00,
2013-05-22 04:16:00,48.6,41.0,29.77,North,0,0.0,0.0,75,0.00,,OVC036,0.00,VWS V12.08,2013-05-22 11:16:00,
2013-05-22 04:21:00,48.6,41.0,29.77,North,0,0.0,0.0,75,0.00,,OVC036,0.00,VWS V12.08,2013-05-22 11:21:00,
2013-05-22 04:26:00,48.6,41.3,29.77,North,0,0.0,0.0,76,0.00,,OVC036,0.00,VWS V12.08,2013-05-22 11:26:00,
2013-05-22 04:31:00,48.6,41.0,29.77,North,0,0.0,0.0,75,0.00,,OVC036,0.00,VWS V12.08,2013-05-22 11:31:00,
2013-05-22 04:36:00,48.6,41.0,29.77,North,0,0.0,0.0,75,0.00,,OVC036,0.00,VWS V12.08,2013-05-22 11:36:00,
2013-05-22 04:41:00,48.6,41.0,29.74,North,0,0.0,0.0,75,0.00,,OVC036,0.00,VWS V12.08,2013-05-22 11:41:00,
2013-05-22 04:46:00,48.6,41.3,29.74,North,0,0.0,0.0,76,0.00,,OVC036,0.00,VWS V12.08,2013-05-22 11:46:00,
2013-05-22 04:51:00,48.6,41.3,29.74,North,0,0.0,0.0,76,0.00,,OVC036,0.00,VWS V12.08,2013-05-22 11:51:00,
2013-05-22 04:56:00,48.6,41.3,29.74,North,0,0.0,0.0,76,0.00,,OVC036,0.00,VWS V12.08,2013-05-22 11:56:00,
2013-05-22 05:01:00,48.4,41.2,29.74,North,0,0.0,0.0,76,0.00,,OVC036,0.00,VWS V12.08,2013-05-22 12:01:00,
2013-05-22 05:06:00,48.4,41.2,29.74,North,0,0.0,0.0,76,0.00,,OVC036,0.00,VWS V12.08,2013-05-22 12:06:00,
2013-05-22 05:11:00,48.4,41.2,29.74,North,0,0.0,0.0,76,0.00,,OVC036,0.00,VWS V12.08,2013-05-22 12:11:00,
2013-05-22 05:16:00,48.4,41.2,29.74,North,0,0.0,0.0,76,0.00,,OVC036,0.00,VWS V12.08,2013-05-22 12:16:00,
2013-05-22 05:21:00,48.4,41.2,29.74,North,0,0.0,0.0,76,0.00,,OVC036,0.00,VWS V12.08,2013-05-22 12:21:00,
2013-05-22 05:26:00,48.4,41.5,29.74,North,0,0.0,0.0,77,0.00,,OVC036,0.00,VWS V12.08,2013-05-22 12:26:00,
2013-05-22 05:31:00,48.6,41.7,29.74,North,0,0.0,0.0,77,0.00,,OVC036,0.00,VWS V12.08,2013-05-22 12:31:00,
2013-05-22 05:36:00,48.6,41.7,29.74,North,0,0.0,0.0,77,0.00,,OVC036,0.00,VWS V12.08,2013-05-22 12:36:00,
2013-05-22 05:41:00,48.7,41.9,29.74,North,0,0.0,0.0,77,0.00,,OVC036,0.00,VWS V12.08,2013-05-22 12:41:00,
2013-05-22 05:46:00,48.7,41.9,29.74,North,0,0.0,0.0,77,0.00,,OVC036,0.00,VWS V12.08,2013-05-22 12:46:00,
2013-05-22 05:51:00,48.7,41.9,29.74,North,0,0.0,0.0,77,0.00,,OVC036,0.00,VWS V12.08,2013-05-22 12:51:00,
2013-05-22 05:56:00,48.7,41.9,29.74,North,0,0.0,0.0,77,0.00,,OVC036,0.00,VWS V12.08,2013-05-22 12:56:00,
2013-05-22 06:01:00,48.7,41.9,29.74,North,0,0.0,0.0,77,0.00,,OVC036,0.00,VWS V12.08,2013-05-22 13:01:00,
2013-05-22 06:06:00,48.7,41.9,29.74,North,0,0.0,0.0,77,0.00,,OVC036,0.00,VWS V12.08,2013-05-22 13:06:00,
2013-05-22 06:11:00,48.7,42.2,29.74,North,0,0.0,0.0,78,0.00,,OVC036,0.00,VWS V12.08,2013-05-22 13:11:00,
2013-05-22 06:16:00,48.9,42.4,29.74,North,0,0.0,0.0,78,0.00,,OVC036,0.00,VWS V12.08,2013-05-22 13:16:00,
2013-05-22 06:21:00,48.7,41.9,29.74,North,0,0.0,0.0,77,0.00,,OVC036,0.00,VWS V12.08,2013-05-22 13:21:00,
2013-05-22 06:26:00,48.7,42.2,29.74,North,0,0.0,0.0,78,0.00,,OVC036,0.00,VWS V12.08,2013-05-22 13:26:00,
2013-05-22 06:32:00,48.9,42.4,29.74,North,0,0.0,0.0,78,0.00,,OVC036,0.00,VWS V12.08,2013-05-22 13:32:00,
2013-05-22 06:37:00,48.9,42.4,29.74,North,0,0.0,0.0,78,0.00,,OVC036,0.00,VWS V12.08,2013-05-22 13:37:00,
2013-05-22 06:41:00,48.9,42.4,29.74,North,0,0.0,0.0,78,0.00,,OVC036,0.00,VWS V12.08,2013-05-22 13:41:00,
2013-05-22 06:46:00,49.1,42.5,29.74,North,0,0.0,0.0,78,0.00,,OVC036,0.00,VWS V12.08,2013-05-22 13:46:00,
2013-05-22 06:51:00,49.3,42.7,29.74,North,0,0.0,0.0,78,0.00,,OVC036,0.00,VWS V12.08,2013-05-22 13:51:00,
2013-05-22 06:56:00,49.3,42.7,29.74,North,0,0.0,0.0,78,0.00,,OVC036,0.00,VWS V12.08,2013-05-22 13:56:00,
2013-05-22 07:01:00,49.3,42.7,29.74,North,0,0.0,0.0,78,0.00,,OVC036,0.00,VWS V12.08,2013-05-22 14:01:00,
2013-05-22 07:06:00,49.3,42.7,29.74,North,0,0.0,0.0,78,0.00,,OVC036,0.00,VWS V12.08,2013-05-22 14:06:00,
2013-05-22 07:11:00,49.5,42.9,29.74,North,0,0.0,0.0,78,0.00,,OVC036,0.00,VWS V12.08,2013-05-22 14:11:00,
2013-05-22 07:16:00,49.5,42.9,29.74,North,0,0.0,0.0,78,0.00,,OVC036,0.00,VWS V12.08,2013-05-22 14:16:00,
2013-05-22 07:21:00,49.6,43.1,29.74,North,0,0.0,0.0,78,0.00,,OVC036,0.00,VWS V12.08,2013-05-22 14:21:00,
2013-05-22 07:27:00,49.6,43.1,29.74,North,0,0.0,0.0,78,0.00,,OVC036,0.00,VWS V12.08,2013-05-22 14:27:00,
2013-05-22 07:32:00,49.6,43.1,29.74,North,0,0.0,0.0,78,0.00,,OVC036,0.00,VWS V12.08,2013-05-22 14:32:00,
2013-05-22 07:37:00,49.8,43.2,29.74,North,0,0.0,0.0,78,0.00,,OVC036,0.00,VWS V12.08,2013-05-22 14:37:00,
2013-05-22 07:42:00,49.8,43.2,29.74,North,0,0.0,0.0,78,0.00,,OVC036,0.00,VWS V12.08,2013-05-22 14:42:00,
2013-05-22 07:47:00,49.8,43.2,29.74,North,0,0.0,0.0,78,0.00,,OVC036,0.00,VWS V12.08,2013-05-22 14:47:00,
2013-05-22 07:52:00,49.8,43.2,29.74,North,0,0.0,0.0,78,0.00,,OVC036,0.00,VWS V12.08,2013-05-22 14:52:00,
2013-05-22 07:57:00,50.0,43.4,29.77,North,0,0.0,0.0,78,0.00,,OVC036,0.00,VWS V12.08,2013-05-22 14:57:00,
2013-05-22 08:02:00,50.0,43.1,29.77,North,0,0.0,0.0,77,0.00,,OVC036,0.00,VWS V12.08,2013-05-22 15:02:00,
2013-05-22 08:07:00,50.0,43.1,29.77,North,0,0.0,0.0,77,0.00,,OVC036,0.00,VWS V12.08,2013-05-22 15:07:00,
2013-05-22 08:12:00,50.0,42.7,29.77,North,0,0.0,0.0,76,0.00,,OVC036,0.00,VWS V12.08,2013-05-22 15:12:00,
2013-05-22 08:17:00,50.2,42.9,29.77,North,0,0.0,0.0,76,0.00,,OVC036,0.00,VWS V12.08,2013-05-22 15:17:00,
2013-05-22 08:22:00,50.0,42.0,29.77,North,0,0.0,0.0,74,0.00,,OVC036,0.00,VWS V12.08,2013-05-22 15:22:00,
2013-05-22 08:27:00,50.2,42.2,29.77,North,0,0.0,0.0,74,0.00,,OVC036,0.00,VWS V12.08,2013-05-22 15:27:00,
2013-05-22 08:32:00,50.0,41.0,29.77,North,0,0.0,0.0,71,0.00,,OVC036,0.00,VWS V12.08,2013-05-22 15:32:00,
2013-05-22 08:37:00,50.2,41.5,29.77,North,0,0.0,0.0,72,0.00,,OVC036,0.00,VWS V12.08,2013-05-22 15:37:00,
2013-05-22 08:42:00,50.2,41.5,29.74,North,0,0.0,0.0,72,0.00,,OVC036,0.00,VWS V12.08,2013-05-22 15:42:00,
2013-05-22 08:47:00,50.4,41.7,29.74,North,0,0.0,0.0,72,0.00,,OVC036,0.00,VWS V12.08,2013-05-22 15:47:00,
2013-05-22 08:52:00,50.4,41.3,29.74,North,0,0.0,0.0,71,0.00,,OVC036,0.00,VWS V12.08,2013-05-22 15:52:00,
2013-05-22 08:57:00,50.4,40.6,29.77,North,0,0.0,0.0,69,0.00,,OVC036,0.00,VWS V12.08,2013-05-22 15:57:00,
2013-05-22 09:02:00,50.2,39.7,29.77,North,0,0.0,0.0,67,0.00,,OVC036,0.00,VWS V12.08,2013-05-22 16:02:00,
2013-05-22 09:07:00,49.8,38.5,29.77,North,0,0.0,0.0,65,0.00,,OVC036,0.00,VWS V12.08,2013-05-22 16:07:00,
2013-05-22 09:12:00,49.8,38.5,29.77,North,0,0.0,0.0,65,0.00,,OVC036,0.00,VWS V12.08,2013-05-22 16:12:00,
2013-05-22 09:17:00,49.8,38.9,29.77,North,0,0.0,0.0,66,0.00,,OVC036,0.00,VWS V12.08,2013-05-22 16:17:00,
2013-05-22 09:22:00,50.2,39.3,29.77,North,0,0.0,0.0,66,0.00,,OVC036,0.00,VWS V12.08,2013-05-22 16:22:00,
2013-05-22 09:27:00,49.8,37.8,29.77,North,0,0.0,0.0,63,0.00,,OVC036,0.00,VWS V12.08,2013-05-22 16:27:00,
2013-05-22 09:32:00,50.0,38.7,29.77,North,0,0.0,0.0,65,0.00,,OVC036,0.00,VWS V12.08,2013-05-22 16:32:00,
2013-05-22 09:37:00,50.0,40.6,29.77,North,0,0.0,0.0,70,0.00,,OVC036,0.00,VWS V12.08,2013-05-22 16:37:00,
2013-05-22 09:42:00,49.6,40.3,29.77,North,0,0.0,0.0,70,0.00,,OVC036,0.00,VWS V12.08,2013-05-22 16:42:00,
2013-05-22 09:47:00,49.6,40.6,29.77,North,0,0.0,0.0,71,0.00,,OVC036,0.00,VWS V12.08,2013-05-22 16:47:00,
2013-05-22 09:52:00,49.1,39.8,29.77,North,0,0.0,0.0,70,0.00,,OVC036,0.00,VWS V12.08,2013-05-22 16:52:00,
2013-05-22 09:57:00,49.3,39.9,29.77,North,0,0.0,0.0,70,0.00,,OVC036,0.00,VWS V12.08,2013-05-22 16:57:00,
2013-05-22 10:02:00,49.5,39.3,29.77,North,0,0.0,0.0,68,0.00,,OVC036,0.00,VWS V12.08,2013-05-22 17:02:00,
2013-05-22 10:07:00,49.6,39.5,29.77,North,0,0.0,0.0,68,0.00,,OVC036,0.00,VWS V12.08,2013-05-22 17:07:00,
2013-05-22 10:12:00,49.5,39.7,29.77,North,0,0.0,0.0,69,0.00,,OVC036,0.00,VWS V12.08,2013-05-22 17:12:00,
2013-05-22 10:17:00,50.0,41.7,29.77,North,0,0.0,0.0,73,0.00,,OVC036,0.00,VWS V12.08,2013-05-22 17:17:00,
2013-05-22 10:22:00,49.3,39.2,29.77,North,0,0.0,0.0,68,0.00,,OVC036,0.00,VWS V12.08,2013-05-22 17:22:00,
2013-05-22 10:27:00,49.5,40.5,29.77,North,0,0.0,0.0,71,0.00,,OVC036,0.00,VWS V12.08,2013-05-22 17:27:00,
2013-05-22 10:32:00,49.8,40.8,29.77,North,0,0.0,0.0,71,0.00,,OVC036,0.00,VWS V12.08,2013-05-22 17:32:00,
2013-05-22 10:37:00,49.6,39.9,29.77,North,0,0.0,0.0,69,0.00,,OVC036,0.00,VWS V12.08,2013-05-22 17:37:00,
2013-05-22 10:42:00,49.3,38.4,29.77,North,0,0.0,0.0,66,0.00,,OVC036,0.00,VWS V12.08,2013-05-22 17:42:00,
2013-05-22 10:47:00,49.6,39.5,29.77,North,0,0.0,0.0,68,0.00,,OVC036,0.00,VWS V12.08,2013-05-22 17:47:00,
2013-05-22 10:52:00,49.5,37.8,29.77,North,0,0.0,0.0,64,0.00,,OVC036,0.00,VWS V12.08,2013-05-22 17:52:00,
2013-05-22 10:57:00,49.6,38.0,29.77,North,0,0.0,0.0,64,0.00,,OVC036,0.00,VWS V12.08,2013-05-22 17:57:00,
2013-05-22 11:02:00,49.8,38.5,29.77,North,0,0.0,0.0,65,0.00,,OVC036,0.00,VWS V12.08,2013-05-22 18:02:00,
2013-05-22 11:07:00,49.8,37.3,29.77,North,0,0.0,0.0,62,0.00,,OVC036,0.00,VWS V12.08,2013-05-22 18:07:00,
2013-05-22 11:12:00,50.0,37.9,29.77,North,0,0.0,0.0,63,0.00,,OVC036,0.00,VWS V12.08,2013-05-22 18:12:00,
2013-05-22 11:17:00,49.8,36.9,29.77,North,0,0.0,0.0,61,0.00,,OVC036,0.00,VWS V12.08,2013-05-22 18:17:00,
2013-05-22 11:22:00,49.8,36.9,29.77,North,0,0.0,0.0,61,0.00,,OVC036,0.00,VWS V12.08,2013-05-22 18:22:00,
2013-05-22 11:27:00,50.0,36.2,29.77,North,0,0.0,0.0,59,0.00,,OVC036,0.00,VWS V12.08,2013-05-22 18:27:00,
2013-05-22 11:32:00,50.2,36.0,29.77,North,0,0.0,0.0,58,0.00,,OVC036,0.00,VWS V12.08,2013-05-22 18:32:00,
2013-05-22 11:37:00,50.0,36.2,29.77,North,0,0.0,0.0,59,0.00,,OVC036,0.00,VWS V12.08,2013-05-22 18:37:00,
2013-05-22 11:42:00,49.8,35.2,29.77,North,0,0.0,0.0,57,0.00,,OVC036,0.00,VWS V12.08,2013-05-22 18:42:00,
2013-05-22 11:47:00,50.0,37.1,29.77,North,0,0.0,0.0,61,0.00,,OVC036,0.00,VWS V12.08,2013-05-22 18:47:00,
2013-05-22 11:52:00,50.0,36.2,29.77,North,0,0.0,0.0,59,0.00,,OVC036,0.00,VWS V12.08,2013-05-22 18:52:00,
2013-05-22 11:57:00,50.0,35.8,29.77,North,0,0.0,0.0,58,0.00,,OVC036,0.00,VWS V12.08,2013-05-22 18:57:00,
2013-05-22 12:02:00,50.0,35.8,29.77,North,0,0.0,0.0,58,0.00,,OVC036,0.00,VWS V12.08,2013-05-22 19:02:00,
2013-05-22 12:07:00,50.2,35.5,29.77,North,0,0.0,0.0,57,0.00,,OVC036,0.00,VWS V12.08,2013-05-22 19:07:00,
2013-05-22 12:12:00,50.2,35.1,29.77,North,0,0.0,0.0,56,0.00,,OVC036,0.00,VWS V12.08,2013-05-22 19:12:00,
2013-05-22 12:17:00,50.5,36.3,29.77,North,0,0.0,0.0,58,0.00,,OVC036,0.00,VWS V12.08,2013-05-22 19:17:00,
2013-05-22 12:22:00,50.7,37.8,29.77,North,0,0.0,0.0,61,0.00,,OVC036,0.00,VWS V12.08,2013-05-22 19:22:00,
2013-05-22 12:27:00,50.9,38.8,29.77,North,0,0.0,0.0,63,0.00,,OVC036,0.00,VWS V12.08,2013-05-22 19:27:00,
2013-05-22 12:32:00,50.4,36.6,29.77,North,0,0.0,0.0,59,0.00,,OVC036,0.00,VWS V12.08,2013-05-22 19:32:00,
2013-05-22 12:37:00,50.2,35.5,29.77,North,0,0.0,0.0,57,0.00,,OVC036,0.00,VWS V12.08,2013-05-22 19:37:00,
2013-05-22 12:42:00,50.0,35.8,29.77,North,0,0.0,0.0,58,0.00,,OVC036,0.00,VWS V12.08,2013-05-22 19:42:00,
2013-05-22 12:47:00,50.4,38.7,29.77,North,0,0.0,0.0,64,0.00,,OVC036,0.00,VWS V12.08,2013-05-22 19:47:00,
2013-05-22 12:52:00,50.2,38.1,29.77,North,0,0.0,0.0,63,0.00,,OVC036,0.00,VWS V12.08,2013-05-22 19:52:00,
2013-05-22 12:57:00,50.4,39.5,29.77,North,0,0.0,0.0,66,0.00,,OVC036,0.00,VWS V12.08,2013-05-22 19:57:00,
2013-05-22 13:02:00,50.2,38.5,29.77,North,0,0.0,0.0,64,0.00,,OVC036,0.00,VWS V12.08,2013-05-22 20:02:00,
2013-05-22 13:07:00,49.8,38.5,29.77,North,0,0.0,0.0,65,0.00,,OVC036,0.00,VWS V12.08,2013-05-22 20:07:00,
2013-05-22 13:12:00,50.2,39.7,29.77,North,0,0.0,0.0,67,0.00,,OVC036,0.00,VWS V12.08,2013-05-22 20:12:00,
2013-05-22 13:17:00,50.2,39.3,29.77,North,0,0.0,0.0,66,0.00,,OVC036,0.00,VWS V12.08,2013-05-22 20:17:00,
2013-05-22 13:22:00,50.2,38.9,29.77,North,0,0.0,0.0,65,0.00,,OVC036,0.00,VWS V12.08,2013-05-22 20:22:00,
2013-05-22 13:27:00,50.4,39.1,29.77,North,0,0.0,0.0,65,0.00,,OVC036,0.00,VWS V12.08,2013-05-22 20:27:00,
2013-05-22 13:32:00,50.5,39.6,29.77,North,0,0.0,0.0,66,0.00,,OVC036,0.00,VWS V12.08,2013-05-22 20:32:00,
2013-05-22 13:37:00,50.2,39.3,29.77,North,0,0.0,0.0,66,0.00,,OVC036,0.00,VWS V12.08,2013-05-22 20:37:00,
2013-05-22 13:42:00,50.4,40.2,29.77,North,0,0.0,0.0,68,0.00,,OVC036,0.00,VWS V12.08,2013-05-22 20:42:00,
2013-05-22 13:47:00,50.7,40.2,29.77,North,0,0.0,0.0,67,0.00,,OVC036,0.00,VWS V12.08,2013-05-22 20:47:00,
2013-05-22 13:52:00,50.2,39.3,29.77,North,0,0.0,0.0,66,0.00,,OVC036,0.00,VWS V12.08,2013-05-22 20:52:00,
2013-05-22 13:57:00,50.4,39.1,29.80,North,0,0.0,0.0,65,0.00,,OVC036,0.00,VWS V12.08,2013-05-22 20:57:00,
2013-05-22 14:02:00,50.5,39.6,29.80,North,0,0.0,0.0,66,0.00,,OVC036,0.00,VWS V12.08,2013-05-22 21:02:00,
2013-05-22 14:07:00,50.5,38.4,29.80,North,0,0.0,0.0,63,0.00,,OVC036,0.00,VWS V12.08,2013-05-22 21:07:00,
2013-05-22 14:12:00,50.7,38.2,29.80,North,0,0.0,0.0,62,0.00,,OVC036,0.00,VWS V12.08,2013-05-22 21:12:00,
2013-05-22 14:17:00,51.3,39.5,29.80,North,0,0.0,0.0,64,0.00,,OVC036,0.00,VWS V12.08,2013-05-22 21:17:00,
2013-05-22 14:22:00,51.3,37.9,29.80,North,0,0.0,0.0,60,0.00,,OVC036,0.00,VWS V12.08,2013-05-22 21:22:00,
2013-05-22 14:27:00,51.3,37.0,29.80,North,0,0.0,0.0,58,0.00,,OVC036,0.00,VWS V12.08,2013-05-22 21:27:00,
2013-05-22 14:32:00,51.8,38.8,29.80,North,0,0.0,0.0,61,0.00,,OVC036,0.00,VWS V12.08,2013-05-22 21:32:00,
2013-05-22 14:37:00,51.8,37.1,29.80,North,0,0.0,0.0,57,0.00,,OVC036,0.00,VWS V12.08,2013-05-22 21:37:00,
2013-05-22 14:42:00,51.6,35.1,29.77,North,0,0.0,0.0,53,0.00,,OVC036,0.00,VWS V12.08,2013-05-22 21:42:00,
2013-05-22 14:47:00,51.6,36.5,29.77,North,0,0.0,0.0,56,0.00,,OVC036,0.00,VWS V12.08,2013-05-22 21:47:00,
2013-05-22 14:52:00,52.0,36.8,29.77,North,0,0.0,0.0,56,0.00,,OVC036,0.00,VWS V12.08,2013-05-22 21:52:00,
2013-05-22 14:57:00,51.8,35.7,29.80,North,0,0.0,0.0,54,0.00,,OVC036,0.00,VWS V12.08,2013-05-22 21:57:00,
2013-05-22 15:02:00,51.6,35.1,29.80,North,0,0.0,0.0,53,0.00,,OVC036,0.00,VWS V12.08,2013-05-22 22:02:00,
2013-05-22 15:07:00,52.2,35.1,29.80,North,0,0.0,0.0,52,0.00,,OVC036,0.00,VWS V12.08,2013-05-22 22:07:00,
2013-05-22 15:12:00,52.2,34.6,29.80,North,0,0.0,0.0,51,0.00,,OVC036,0.00,VWS V12.08,2013-05-22 22:12:00,
2013-05-22 15:17:00,52.5,34.4,29.80,North,0,0.0,0.0,50,0.00,,OVC036,0.00,VWS V12.08,2013-05-22 22:17:00,
2013-05-22 15:22:00,52.7,36.1,29.80,North,0,0.0,0.0,53,0.00,,OVC036,0.00,VWS V12.08,2013-05-22 22:22:00,
2013-05-22 15:27:00,52.7,37.0,29.80,North,0,0.0,0.0,55,0.00,,OVC036,0.00,VWS V12.08,2013-05-22 22:27:00,
2013-05-22 15:32:00,52.3,35.2,29.80,North,0,0.0,0.0,52,0.00,,OVC036,0.00,VWS V12.08,2013-05-22 22:32:00,
2013-05-22 15:37:00,52.5,35.4,29.80,North,0,0.0,0.0,52,0.00,,OVC036,0.00,VWS V12.08,2013-05-22 22:37:00,
2013-05-22 15:42:00,52.7,35.6,29.80,North,0,0.0,0.0,52,0.00,,OVC036,0.00,VWS V12.08,2013-05-22 22:42:00,
2013-05-22 15:47:00,52.7,35.1,29.80,North,0,0.0,0.0,51,0.00,,OVC036,0.00,VWS V12.08,2013-05-22 22:47:00,
2013-05-22 15:52:00,52.0,33.4,29.80,North,0,0.0,0.0,49,0.00,,OVC036,0.00,VWS V12.08,2013-05-22 22:52:00,
2013-05-22 15:57:00,52.3,35.2,29.80,North,0,0.0,0.0,52,0.00,,OVC036,0.00,VWS V12.08,2013-05-22 22:57:00,
2013-05-22 16:02:00,52.3,34.3,29.80,North,0,0.0,0.0,50,0.00,,OVC036,0.00,VWS V12.08,2013-05-22 23:02:00,
2013-05-22 16:07:00,52.7,35.6,29.80,North,0,0.0,0.0,52,0.00,,OVC036,0.00,VWS V12.08,2013-05-22 23:07:00,
2013-05-22 16:12:00,52.7,37.5,29.80,North,0,0.0,0.0,56,0.00,,OVC036,0.00,VWS V12.08,2013-05-22 23:12:00,
2013-05-22 16:17:00,52.5,36.4,29.80,North,0,0.0,0.0,54,0.00,,OVC036,0.00,VWS V12.08,2013-05-22 23:17:00,
2013-05-22 16:22:00,52.3,35.7,29.80,North,0,0.0,0.0,53,0.00,,OVC036,0.00,VWS V12.08,2013-05-22 23:22:00,
2013-05-22 16:27:00,52.5,36.4,29.80,North,0,0.0,0.0,54,0.00,,OVC036,0.00,VWS V12.08,2013-05-22 23:27:00,
2013-05-22 16:32:00,52.2,34.6,29.80,North,0,0.0,0.0,51,0.00,,OVC036,0.00,VWS V12.08,2013-05-22 23:32:00,
2013-05-22 16:37:00,52.5,36.4,29.80,North,0,0.0,0.0,54,0.00,,OVC036,0.00,VWS V12.08,2013-05-22 23:37:00,
2013-05-22 16:42:00,52.2,34.1,29.80,North,0,0.0,0.0,50,0.00,,OVC036,0.00,VWS V12.08,2013-05-22 23:42:00,
2013-05-22 16:47:00,52.5,34.9,29.80,North,0,0.0,0.0,51,0.00,,OVC036,0.00,VWS V12.08,2013-05-22 23:47:00,
2013-05-22 16:52:00,52.2,34.6,29.80,North,0,0.0,0.0,51,0.00,,OVC036,0.00,VWS V12.08,2013-05-22 23:52:00,
2013-05-22 16:57:00,52.3,36.2,29.80,North,0,0.0,0.0,54,0.00,,OVC036,0.00,VWS V12.08,2013-05-22 23:57:00,
2013-05-22 17:02:00,52.2,35.1,29.80,North,0,0.0,0.0,52,0.00,,OVC036,0.00,VWS V12.08,2013-05-23 00:02:00,
2013-05-22 17:07:00,52.0,34.4,29.80,North,0,0.0,0.0,51,0.00,,OVC036,0.00,VWS V12.08,2013-05-23 00:07:00,
2013-05-22 17:12:00,52.0,33.9,29.80,North,0,0.0,0.0,50,0.00,,OVC036,0.00,VWS V12.08,2013-05-23 00:12:00,
2013-05-22 17:17:00,52.2,35.1,29.80,North,0,0.0,0.0,52,0.00,,OVC036,0.00,VWS V12.08,2013-05-23 00:17:00,
2013-05-22 17:22:00,52.2,34.6,29.80,North,0,0.0,0.0,51,0.00,,OVC036,0.00,VWS V12.08,2013-05-23 00:22:00,
2013-05-22 17:27:00,52.5,35.4,29.80,North,0,0.0,0.0,52,0.00,,OVC036,0.00,VWS V12.08,2013-05-23 00:27:00,
2013-05-22 17:32:00,52.2,34.6,29.80,North,0,0.0,0.0,51,0.00,,OVC036,0.00,VWS V12.08,2013-05-23 00:32:00,
2013-05-22 17:37:00,52.3,34.8,29.80,North,0,0.0,0.0,51,0.00,,OVC036,0.00,VWS V12.08,2013-05-23 00:37:00,
2013-05-22 17:42:00,52.0,33.4,29.80,North,0,0.0,0.0,49,0.00,,OVC036,0.00,VWS V12.08,2013-05-23 00:42:00,
2013-05-22 17:47:00,52.2,34.1,29.80,North,0,0.0,0.0,50,0.00,,OVC036,0.00,VWS V12.08,2013-05-23 00:47:00,
2013-05-22 17:52:00,52.3,34.8,29.80,North,0,0.0,0.0,51,0.00,,OVC036,0.00,VWS V12.08,2013-05-23 00:52:00,
2013-05-22 17:57:00,52.3,35.2,29.80,North,0,0.0,0.0,52,0.00,,OVC036,0.00,VWS V12.08,2013-05-23 00:57:00,
2013-05-22 18:02:00,52.2,35.6,29.80,North,0,0.0,0.0,53,0.00,,OVC036,0.00,VWS V12.08,2013-05-23 01:02:00,
2013-05-22 18:07:00,52.5,36.8,29.80,North,0,0.0,0.0,55,0.00,,OVC036,0.00,VWS V12.08,2013-05-23 01:07:00,
2013-05-22 18:12:00,52.3,35.7,29.80,North,0,0.0,0.0,53,0.00,,OVC036,0.00,VWS V12.08,2013-05-23 01:12:00,
2013-05-22 18:17:00,52.3,36.2,29.80,North,0,0.0,0.0,54,0.00,,OVC036,0.00,VWS V12.08,2013-05-23 01:17:00,
2013-05-22 18:22:00,52.2,34.6,29.80,North,0,0.0,0.0,51,0.00,,OVC036,0.00,VWS V12.08,2013-05-23 01:22:00,
2013-05-22 18:27:00,52.2,33.6,29.80,North,0,0.0,0.0,49,0.00,,OVC036,0.00,VWS V12.08,2013-05-23 01:27:00,
2013-05-22 18:32:00,52.2,32.6,29.80,North,0,0.0,0.0,47,0.00,,OVC036,0.00,VWS V12.08,2013-05-23 01:32:00,
2013-05-22 18:37:00,52.3,32.7,29.80,North,0,0.0,0.0,47,0.00,,OVC036,0.00,VWS V12.08,2013-05-23 01:37:00,
2013-05-22 18:42:00,52.3,33.2,29.80,North,0,0.0,0.0,48,0.00,,OVC036,0.00,VWS V12.08,2013-05-23 01:42:00,
2013-05-22 18:47:00,52.3,33.8,29.80,North,0,0.0,0.0,49,0.00,,OVC036,0.00,VWS V12.08,2013-05-23 01:47:00,
2013-05-22 18:52:00,52.3,33.8,29.80,North,0,0.0,0.0,49,0.00,,OVC036,0.00,VWS V12.08,2013-05-23 01:52:00,
2013-05-22 18:57:00,52.3,33.8,29.80,North,0,0.0,0.0,49,0.00,,OVC036,0.00,VWS V12.08,2013-05-23 01:57:00,
2013-05-22 19:02:00,52.3,33.2,29.80,North,0,0.0,0.0,48,0.00,,OVC036,0.00,VWS V12.08,2013-05-23 02:02:00,
2013-05-22 19:07:00,52.3,33.8,29.80,North,0,0.0,0.0,49,0.00,,OVC036,0.00,VWS V12.08,2013-05-23 02:07:00,
2013-05-22 19:12:00,52.3,33.8,29.80,North,0,0.0,0.0,49,0.00,,OVC036,0.00,VWS V12.08,2013-05-23 02:12:00,
2013-05-22 19:17:00,52.5,33.9,29.80,North,0,0.0,0.0,49,0.00,,OVC036,0.00,VWS V12.08,2013-05-23 02:17:00,
2013-05-22 19:22:00,52.5,33.9,29.80,North,0,0.0,0.0,49,0.00,,OVC036,0.00,VWS V12.08,2013-05-23 02:22:00,
2013-05-22 19:27:00,52.7,34.1,29.80,North,0,0.0,0.0,49,0.00,,OVC036,0.00,VWS V12.08,2013-05-23 02:27:00,
2013-05-22 19:32:00,52.5,34.4,29.80,North,0,0.0,0.0,50,0.00,,OVC036,0.00,VWS V12.08,2013-05-23 02:32:00,
2013-05-22 19:37:00,52.5,34.4,29.80,North,0,0.0,0.0,50,0.00,,OVC036,0.00,VWS V12.08,2013-05-23 02:37:00,
2013-05-22 19:42:00,52.5,34.9,29.80,North,0,0.0,0.0,51,0.00,,OVC036,0.00,VWS V12.08,2013-05-23 02:42:00,
2013-05-22 19:47:00,52.3,34.3,29.80,North,0,0.0,0.0,50,0.00,,OVC036,0.00,VWS V12.08,2013-05-23 02:47:00,
2013-05-22 19:52:00,51.8,33.3,29.80,North,0,0.0,0.0,49,0.00,,OVC036,0.00,VWS V12.08,2013-05-23 02:52:00,
2013-05-22 19:57:00,52.0,34.4,29.80,North,0,0.0,0.0,51,0.00,,OVC036,0.00,VWS V12.08,2013-05-23 02:57:00,
2013-05-22 20:02:00,52.0,34.4,29.80,North,0,0.0,0.0,51,0.00,,OVC036,0.00,VWS V12.08,2013-05-23 03:02:00,
2013-05-22 20:07:00,52.0,34.9,29.80,North,0,0.0,0.0,52,0.00,,OVC036,0.00,VWS V12.08,2013-05-23 03:07:00,
2013-05-22 20:12:00,51.8,34.8,29.80,North,0,0.0,0.0,52,0.00,,OVC036,0.00,VWS V12.08,2013-05-23 03:12:00,
2013-05-22 20:17:00,51.8,35.2,29.80,North,0,0.0,0.0,53,0.00,,OVC036,0.00,VWS V12.08,2013-05-23 03:17:00,
2013-05-22 20:22:00,51.6,35.5,29.80,North,0,0.0,0.0,54,0.00,,OVC036,0.00,VWS V12.08,2013-05-23 03:22:00,
2013-05-22 20:27:00,51.6,35.5,29.80,North,0,0.0,0.0,54,0.00,,OVC036,0.00,VWS V12.08,2013-05-23 03:27:00,
2013-05-22 20:32:00,51.4,35.8,29.80,North,0,0.0,0.0,55,0.00,,OVC036,0.00,VWS V12.08,2013-05-23 03:32:00,
2013-05-22 20:37:00,51.3,36.6,29.80,North,0,0.0,0.0,57,0.00,,OVC036,0.00,VWS V12.08,2013-05-23 03:37:00,
2013-05-22 20:42:00,51.1,37.3,29.80,North,0,0.0,0.0,59,0.00,,OVC036,0.00,VWS V12.08,2013-05-23 03:42:00,
2013-05-22 20:47:00,51.1,37.3,29.80,North,0,0.0,0.0,59,0.00,,OVC036,0.00,VWS V12.08,2013-05-23 03:47:00,
2013-05-22 20:52:00,50.9,37.1,29.80,North,0,0.0,0.0,59,0.00,,OVC036,0.00,VWS V12.08,2013-05-23 03:52:00,
2013-05-22 20:57:00,50.9,36.7,29.80,North,0,0.0,0.0,58,0.00,,OVC036,0.00,VWS V12.08,2013-05-23 03:57:00,
2013-05-22 21:01:00,50.5,35.9,29.80,North,0,0.0,0.0,57,0.00,,OVC036,0.00,VWS V12.08,2013-05-23 04:01:00,
2013-05-22 21:06:00,50.4,36.2,29.80,North,0,0.0,0.0,58,0.00,,OVC036,0.00,VWS V12.08,2013-05-23 04:06:00,
2013-05-22 21:11:00,50.4,36.6,29.80,North,0,0.0,0.0,59,0.00,,OVC036,0.00,VWS V12.08,2013-05-23 04:11:00,
2013-05-22 21:16:00,50.2,36.8,29.80,North,0,0.0,0.0,60,0.00,,OVC036,0.00,VWS V12.08,2013-05-23 04:16:00,
2013-05-22 21:21:00,50.2,36.4,29.80,North,0,0.0,0.0,59,0.00,,OVC036,0.00,VWS V12.08,2013-05-23 04:21:00,
2013-05-22 21:26:00,50.2,36.4,29.83,North,0,0.0,0.0,59,0.00,,OVC036,0.00,VWS V12.08,2013-05-23 04:26:00,
2013-05-22 21:31:00,50.2,36.4,29.83,North,0,0.0,0.0,59,0.00,,OVC036,0.00,VWS V12.08,2013-05-23 04:31:00,
2013-05-22 21:36:00,50.0,36.2,29.83,North,0,0.0,0.0,59,0.00,,OVC036,0.00,VWS V12.08,2013-05-23 04:36:00,
2013-05-22 21:41:00,50.0,36.7,29.83,North,0,0.0,0.0,60,0.00,,OVC036,0.00,VWS V12.08,2013-05-23 04:41:00,
2013-05-22 21:46:00,49.8,36.5,29.83,North,0,0.0,0.0,60,0.00,,OVC036,0.00,VWS V12.08,2013-05-23 04:46:00,
2013-05-22 21:51:00,49.8,36.5,29.83,North,0,0.0,0.0,60,0.00,,OVC036,0.00,VWS V12.08,2013-05-23 04:51:00,
2013-05-22 21:56:00,49.6,36.8,29.83,North,0,0.0,0.0,61,0.00,,OVC036,0.00,VWS V12.08,2013-05-23 04:56:00,
2013-05-22 22:01:00,49.6,36.8,29.83,North,0,0.0,0.0,61,0.00,,OVC036,0.00,VWS V12.08,2013-05-23 05:01:00,
2013-05-22 22:06:00,49.6,36.8,29.83,North,0,0.0,0.0,61,0.00,,OVC036,0.00,VWS V12.08,2013-05-23 05:06:00,
2013-05-22 22:11:00,49.5,36.6,29.83,North,0,0.0,0.0,61,0.00,,OVC036,0.00,VWS V12.08,2013-05-23 05:11:00,
2013-05-22 22:16:00,49.3,36.4,29.83,North,0,0.0,0.0,61,0.00,,OVC036,0.00,VWS V12.08,2013-05-23 05:16:00,
2013-05-22 22:21:00,49.1,36.2,29.83,North,0,0.0,0.0,61,0.00,,OVC036,0.00,VWS V12.08,2013-05-23 05:21:00,
2013-05-22 22:26:00,48.9,36.5,29.83,North,0,0.0,0.0,62,0.00,,OVC036,0.00,VWS V12.08,2013-05-23 05:26:00,
2013-05-22 22:31:00,48.7,36.7,29.83,North,0,0.0,0.0,63,0.00,,OVC036,0.00,VWS V12.08,2013-05-23 05:31:00,
2013-05-22 22:36:00,48.7,36.7,29.83,North,0,0.0,0.0,63,0.00,,OVC036,0.00,VWS V12.08,2013-05-23 05:36:00,
2013-05-22 22:41:00,48.7,37.1,29.83,North,0,0.0,0.0,64,0.00,,OVC036,0.00,VWS V12.08,2013-05-23 05:41:00,
2013-05-22 22:46:00,48.7,37.1,29.83,North,0,0.0,0.0,64,0.00,,OVC036,0.00,VWS V12.08,2013-05-23 05:46:00,
2013-05-22 22:51:00,48.6,37.3,29.83,North,0,0.0,0.0,65,0.00,,OVC036,0.00,VWS V12.08,2013-05-23 05:51:00,
2013-05-22 22:56:00,48.6,37.7,29.83,North,0,0.0,0.0,66,0.00,,OVC036,0.00,VWS V12.08,2013-05-23 05:56:00,
2013-05-22 23:01:00,48.6,37.7,29.83,North,0,0.0,0.0,66,0.00,,OVC036,0.00,VWS V12.08,2013-05-23 06:01:00,
2013-05-22 23:06:00,48.6,38.1,29.83,North,0,0.0,0.0,67,0.00,,OVC036,0.00,VWS V12.08,2013-05-23 06:06:00,
2013-05-22 23:11:00,48.6,38.1,29.83,North,0,0.0,0.0,67,0.00,,OVC036,0.00,VWS V12.08,2013-05-23 06:11:00,
2013-05-22 23:16:00,48.4,37.9,29.83,North,0,0.0,0.0,67,0.00,,OVC036,0.00,VWS V12.08,2013-05-23 06:16:00,
2013-05-22 23:21:00,48.4,37.9,29.83,North,0,0.0,0.0,67,0.00,,OVC036,0.00,VWS V12.08,2013-05-23 06:21:00,
2013-05-22 23:26:00,48.2,37.8,29.83,North,0,0.0,0.0,67,0.00,,OVC036,0.00,VWS V12.08,2013-05-23 06:26:00,
2013-05-22 23:31:00,48.2,37.8,29.83,North,0,0.0,0.0,67,0.00,,OVC036,0.00,VWS V12.08,2013-05-23 06:31:00,
2013-05-22 23:36:00,48.0,37.6,29.83,North,0,0.0,0.0,67,0.00,,OVC036,0.00,VWS V12.08,2013-05-23 06:36:00,
2013-05-22 23:41:00,48.0,37.6,29.83,North,0,0.0,0.0,67,0.00,,OVC036,0.00,VWS V12.08,2013-05-23 06:41:00,
2013-05-22 23:46:00,47.8,37.4,29.83,North,0,0.0,0.0,67,0.00,,OVC036,0.00,VWS V12.08,2013-05-23 06:46:00,
2013-05-22 23:51:00,47.8,37.8,29.83,North,0,0.0,0.0,68,0.00,,OVC036,0.00,VWS V12.08,2013-05-23 06:51:00,
2013-05-22 23:56:00,47.7,37.6,29.83,North,0,0.0,0.0,68,0.00,,OVC036,0.00,VWS V12.08,2013-05-23 06:56:00,